Simultaneous Nadir Overpasses (SNOs) Predictions

Prediction of SNOs between METOP-C and LANDSAT-8 Satellite Orbit:

Table of predicted SNOs for the next 14.0 days since TLE Epoch: 7/21/2023
Index Date (METOP-C) Time (METOP-C) Lat,Lon (METOP-C) SZA (METOP-C ) Date (LANDSAT-8) Time (LANDSAT-8) Lat,Lon (LANDSAT-8) SZA (LANDSAT-8 ) Distance(km) Time Diff (sec)
1 07/23/2023 22:51:53 81.19,-122.15 63.28 07/23/2023 22:51:58 81.19,-121.96 63.30 3.34 5
2 07/23/2023 23:42:33 -81.20, 45.81 116.64 07/23/2023 23:41:24 -81.21, 46.00 116.65 3.33 69
3 07/26/2023 18:26:11 81.20, -55.21 63.94 07/26/2023 18:26:15 81.20, -55.24 63.94 0.54 4
4 07/26/2023 19:16:51 -81.22, 112.73 115.98 07/26/2023 19:15:41 -81.22, 112.75 116.00 0.65 70
5 07/29/2023 13:10:32 -80.40,-171.27 117.44 07/29/2023 13:11:46 -80.04,-169.94 117.63 47.33 74
6 07/29/2023 14:00:30 81.19, 10.89 64.55 07/29/2023 14:00:32 81.19, 10.95 64.55 1.07 2
7 07/29/2023 14:51:10 -81.21, 178.81 115.38 07/29/2023 14:49:58 -81.21, 178.96 115.39 2.67 72
8 08/01/2023 08:44:10 -81.18, -90.42 114.83 08/01/2023 08:45:23 -81.19, -90.29 114.78 2.26 73
9 08/01/2023 09:34:48 81.20, 77.69 65.28 08/01/2023 09:34:48 81.21, 77.73 65.29 1.05 0
10 08/01/2023 10:25:28 -81.22,-114.43 114.65 08/01/2023 10:24:15 -81.21,-114.60 114.70 3.09 73
11 08/04/2023 04:18:29 -81.18, -24.11 114.12 08/04/2023 04:19:40 -81.18, -24.01 114.07 1.72 71
12 08/04/2023 05:09:07 81.20, 144.03 66.00 08/04/2023 05:09:05 81.20, 143.99 65.99 0.68 2



Historial Predications of SNOs between METOP-C and LANDSAT-8
